TimeCST,TemperatureF,Dew PointF,Humidity,Sea Level PressureIn,VisibilityMPH,Wind Direction,Wind SpeedMPH,Gust SpeedMPH,PrecipitationIn,Events,Conditions,WindDirDegrees,DateUTC
12:15 AM,54.5,53.4,96,29.88,0.2,NNW,4.6,-,N/A,Fog,Fog,340,2013-12-02 06:15:00
12:35 AM,54.9,54.0,97,29.87,0.2,North,3.5,-,N/A,Fog,Fog,350,2013-12-02 06:35:00
12:55 AM,54.0,52.9,96,29.86,0.2,Calm,Calm,-,N/A,Fog,Fog,0,2013-12-02 06:55:00
1:15 AM,53.8,52.9,97,29.86,0.2,Calm,Calm,-,N/A,Fog,Fog,0,2013-12-02 07:15:00
1:35 AM,54.3,53.4,97,29.85,0.2,Calm,Calm,-,N/A,Fog,Fog,0,2013-12-02 07:35:00
1:55 AM,52.5,51.6,97,29.84,0.2,Calm,Calm,-,N/A,Fog,Fog,0,2013-12-02 07:55:00
2:15 AM,52.0,51.1,97,29.84,0.2,Calm,Calm,-,N/A,Fog,Fog,0,2013-12-02 08:15:00
2:35 AM,52.0,51.1,97,29.83,0.2,Calm,Calm,-,N/A,Fog,Fog,0,2013-12-02 08:35:00
2:55 AM,52.0,51.1,97,29.83,0.2,NNW,3.5,-,N/A,Fog,Fog,330,2013-12-02 08:55:00
3:15 AM,51.8,51.1,97,29.83,0.2,North,4.6,-,N/A,Fog,Fog,350,2013-12-02 09:15:00
3:35 AM,52.0,51.3,97,29.83,0.2,Calm,Calm,-,N/A,Fog,Fog,0,2013-12-02 09:35:00
3:55 AM,51.3,50.4,97,29.82,0.2,Calm,Calm,-,N/A,Fog,Fog,0,2013-12-02 09:55:00
4:15 AM,51.1,50.4,97,29.81,0.8,Calm,Calm,-,N/A,,Overcast,0,2013-12-02 10:15:00
4:35 AM,51.1,50.4,97,29.81,0.5,Calm,Calm,-,N/A,Fog,Fog,0,2013-12-02 10:35:00
4:55 AM,51.1,50.4,97,29.81,0.2,Calm,Calm,-,N/A,Fog,Fog,0,2013-12-02 10:55:00
5:15 AM,51.1,50.4,97,29.80,0.2,Calm,Calm,-,N/A,Fog,Fog,0,2013-12-02 11:15:00
5:35 AM,51.1,50.4,97,29.80,0.2,Calm,Calm,-,N/A,Fog,Fog,0,2013-12-02 11:35:00
5:55 AM,51.1,50.4,97,29.80,1.0,Calm,Calm,-,N/A,,Overcast,0,2013-12-02 11:55:00
6:15 AM,51.6,50.9,97,29.81,0.5,Calm,Calm,-,N/A,Fog,Fog,0,2013-12-02 12:15:00
6:35 AM,52.0,51.3,97,29.81,0.5,Calm,Calm,-,N/A,Fog,Fog,0,2013-12-02 12:35:00
6:55 AM,52.3,51.6,97,29.81,0.2,Calm,Calm,-,N/A,Fog,Fog,0,2013-12-02 12:55:00
7:15 AM,52.7,51.8,97,29.81,0.5,Calm,Calm,-,N/A,Fog,Fog,0,2013-12-02 13:15:00
7:35 AM,52.9,52.2,97,29.81,0.2,Calm,Calm,-,N/A,Fog,Fog,0,2013-12-02 13:35:00
7:55 AM,53.2,52.7,98,29.82,0.2,Calm,Calm,-,N/A,Fog,Fog,0,2013-12-02 13:55:00
8:15 AM,54.0,53.4,98,29.81,0.2,Calm,Calm,-,N/A,Fog,Fog,0,2013-12-02 14:15:00
8:35 AM,55.0,54.3,97,29.81,0.2,Calm,Calm,-,N/A,Fog,Fog,0,2013-12-02 14:35:00
8:55 AM,55.6,54.9,97,29.80,0.2,SE,3.5,-,N/A,Fog,Fog,130,2013-12-02 14:55:00
9:15 AM,55.8,55.2,98,29.81,0.2,Calm,Calm,-,N/A,Fog,Fog,0,2013-12-02 15:15:00
9:35 AM,55.8,55.0,97,29.81,0.2,Calm,Calm,-,N/A,Fog,Fog,0,2013-12-02 15:35:00
9:55 AM,56.1,55.4,97,29.81,0.2,Calm,Calm,-,N/A,Fog,Fog,0,2013-12-02 15:55:00
10:15 AM,55.8,55.0,97,29.81,0.2,Calm,Calm,-,N/A,Fog,Fog,0,2013-12-02 16:15:00
10:35 AM,55.9,55.2,97,29.80,0.2,SSW,3.5,-,N/A,Fog,Fog,200,2013-12-02 16:35:00
10:55 AM,55.6,54.9,97,29.80,0.2,Calm,Calm,-,N/A,Fog,Fog,0,2013-12-02 16:55:00
11:15 AM,55.9,55.4,98,29.79,0.2,Calm,Calm,-,N/A,Fog,Fog,0,2013-12-02 17:15:00
11:35 AM,56.7,55.9,97,29.77,0.2,Calm,Calm,-,N/A,Fog,Fog,0,2013-12-02 17:35:00
11:55 AM,57.2,56.5,97,29.76,0.2,Calm,Calm,-,N/A,Fog,Fog,0,2013-12-02 17:55:00
12:15 PM,56.8,55.9,97,29.76,2.0,Calm,Calm,-,N/A,,Overcast,0,2013-12-02 18:15:00
12:35 PM,57.6,56.8,97,29.76,4.0,Calm,Calm,-,N/A,,Overcast,0,2013-12-02 18:35:00
12:55 PM,57.4,56.7,97,29.75,5.0,Calm,Calm,-,N/A,,Overcast,0,2013-12-02 18:55:00
1:15 PM,58.1,57.2,97,29.73,4.0,Calm,Calm,-,N/A,,Overcast,0,2013-12-02 19:15:00
1:35 PM,57.7,56.8,97,29.73,5.0,Calm,Calm,-,N/A,,Overcast,0,2013-12-02 19:35:00
1:55 PM,58.1,57.2,97,29.71,5.0,Calm,Calm,-,N/A,,Overcast,0,2013-12-02 19:55:00
2:15 PM,58.1,57.2,97,29.71,7.0,Calm,Calm,-,N/A,,Overcast,0,2013-12-02 20:15:00
2:35 PM,58.5,57.2,96,29.71,7.0,Calm,Calm,-,N/A,,Overcast,0,2013-12-02 20:35:00
2:55 PM,58.5,56.8,94,29.70,7.0,Calm,Calm,-,N/A,,Overcast,0,2013-12-02 20:55:00
3:15 PM,58.5,56.7,94,29.70,7.0,SSE,3.5,-,N/A,,Overcast,160,2013-12-02 21:15:00
3:35 PM,58.5,56.7,94,29.70,5.0,SE,3.5,-,N/A,,Overcast,130,2013-12-02 21:35:00
3:55 PM,58.3,56.7,94,29.70,4.0,Calm,Calm,-,N/A,,Overcast,0,2013-12-02 21:55:00
4:15 PM,58.1,56.7,95,29.70,3.0,Calm,Calm,-,N/A,,Overcast,0,2013-12-02 22:15:00
4:35 PM,58.1,56.5,94,29.71,2.5,Calm,Calm,-,N/A,,Overcast,0,2013-12-02 22:35:00
4:55 PM,58.1,56.7,95,29.71,2.5,Calm,Calm,-,N/A,,Overcast,0,2013-12-02 22:55:00
5:15 PM,57.7,56.7,96,29.72,2.5,Calm,Calm,-,N/A,,Overcast,0,2013-12-02 23:15:00
5:35 PM,57.6,56.3,96,29.72,3.0,South,3.5,-,N/A,,Overcast,170,2013-12-02 23:35:00
5:55 PM,57.2,56.3,97,29.71,1.0,SSE,3.5,-,N/A,,Overcast,150,2013-12-02 23:55:00
6:15 PM,57.2,56.3,97,29.72,2.5,Calm,Calm,-,N/A,,Overcast,0,2013-12-03 00:15:00
6:35 PM,57.2,55.9,96,29.72,4.0,SSE,3.5,-,N/A,,Overcast,150,2013-12-03 00:35:00
6:55 PM,57.2,55.6,94,29.72,7.0,SE,4.6,-,N/A,,Overcast,130,2013-12-03 00:55:00
7:15 PM,57.0,54.7,92,29.72,7.0,Calm,Calm,-,N/A,,Overcast,0,2013-12-03 01:15:00
7:35 PM,56.3,54.5,94,29.72,5.0,Calm,Calm,-,N/A,,Scattered Clouds,0,2013-12-03 01:35:00
7:55 PM,55.8,54.5,96,29.72,4.0,Calm,Calm,-,N/A,,Clear,0,2013-12-03 01:55:00
8:15 PM,54.5,53.6,97,29.72,0.8,Calm,Calm,-,N/A,,Mist,0,2013-12-03 02:15:00
8:35 PM,53.4,52.5,97,29.71,0.5,Calm,Calm,-,N/A,Fog,Fog,0,2013-12-03 02:35:00
8:55 PM,50.9,50.0,97,29.70,0.5,South,5.8,-,N/A,Fog,Fog,170,2013-12-03 02:55:00
9:15 PM,51.1,50.4,97,29.69,0.2,SSE,3.5,-,N/A,Fog,Fog,150,2013-12-03 03:15:00
9:35 PM,51.8,51.1,97,29.70,0.2,Calm,Calm,-,N/A,Fog,Fog,0,2013-12-03 03:35:00
9:55 PM,50.7,50.0,97,29.69,0.2,Calm,Calm,-,N/A,Fog,Fog,0,2013-12-03 03:55:00
10:15 PM,49.1,48.4,97,29.69,0.2,Calm,Calm,-,N/A,Fog,Fog,0,2013-12-03 04:15:00
10:35 PM,49.8,49.1,97,29.69,0.2,Calm,Calm,-,N/A,Fog,Fog,0,2013-12-03 04:35:00
10:55 PM,49.6,49.1,98,29.70,0.2,Calm,Calm,-,N/A,Fog,Fog,0,2013-12-03 04:55:00
11:15 PM,49.6,48.9,97,29.70,0.2,Calm,Calm,-,N/A,Fog,Fog,0,2013-12-03 05:15:00
11:35 PM,50.0,49.3,97,29.70,0.2,Calm,Calm,-,N/A,Fog,Fog,0,2013-12-03 05:35:00
11:55 PM,50.0,49.3,97,29.70,0.2,Calm,Calm,-,N/A,Fog,Fog,0,2013-12-03 05:55:00